星链-1329 (STARLINK-1329 )

导读

STARLINK-1329是美国太空探索技术公司Starlink卫星互联网星座的一员,于2020年4月22日发射升空,星链计划旨在构建全球卫星互联网,为全球提供高速低延迟网络服务,该卫星加入星座后,推动了网络覆盖范围扩容,也加剧近地轨道空间资源竞争。

基本信息
目录编号:
45531
目录名称:
STARLINK-1329
国际标识:
2020-025A
轨道中心:
EARTH
卫星名称:
星链-1329
卫星全名:
星链-1329 (STARLINK-1329 )
卫星状态:
在轨 (已飞行2334 天)
发射日期:
2020-04-22 UTC
国别 :
美国 (US)
星等 :
--
该卫星已列入 空间交会检测服务 Space Conjunction Data Service (SCDS) ,当前飞行风险评估等级: 无高风险
轨道信息
数据来源 国际轨道数据
星历时间: 2026-09-12T16:00:02+0800
10小时前
查看轨道信息
半长轴: 6673.224km
偏心率: 0.0005044
轨道倾角: 53.032°
近地点辐角 65.165°
升交点赤经 232.244°
平近点角 311.792°
近地点: 291.721km
远地点: 298.453km
周期: 90.420分钟
每日圈数: 15.925727
详细信息
固有亮度:
5
最大亮度:
2.5
卫星平台:
Starlink V1.0
覆盖范围:
全球
运营商:
太空探索技术公司
运营商所在国:
美国
制造商(研发单位):
太空探索技术公司
制造商所在国:
美国
使用方式:
暂无
卫星简介
星链(Starlink)计划是由太空探索技术公司(SpaceX)提出的一个巨型低轨卫星互联网星座项目,计划在2019年至2024年间在太空搭建由约1.2万颗卫星组成的“星链”网络,其中1584颗将部署在地球上空550千米处的近地轨道,并从2020年开始工作。该卫星仍在工作。
2D轨道图
3D轨道图
轨道高度分析图
轨道倾角分析图
轨道综合分析图
查看轨道综合分析图
与全量物体交会距离演化趋势
与全量物体交会风险概率演化趋势